Flag for Canada Weather past 2 weeks in Oshawa, Ontario, Canada

55 °F

Mostly cloudy.

Feels Like: 52 °F
Forecast: N/A
Wind: 12 mph from Southwest

Location: Toronto Buttonville

Current Time: Nov 26, 2015 at 3:42:26 PM

Latest Report: Nov 26, 2015 at 3:00 PM

Visibility: 15 mi

Pressure: 30.38 "Hg

Humidity: 59%

Dew point: 41 °F

Location of OshawaLocation

Historic Weather in Oshawa — Graph


Oshawa temperature yesterday

Maximum temperature yesterday: 43 °F (at 1:00 PM)
Minimum temperature yesterday: 25 °F (at 3:00 AM)
Average temperature yesterday: 34 °F

Past Weeks' High & Low Weather Summary

High59 °F (Nov 15, 3:00 PM)100% (Nov 11, 8:00 PM)30.61 "Hg (Nov 11, 8:00 PM)
Low19 °F (Nov 23, 7:00 AM)37% (Nov 17, 2:00 PM)29.30 "Hg (Nov 12, 1:00 PM)
Average41 °F75%30.08 "Hg
* Reported Nov 11 2:00 PM — Nov 26 2:00 PM, Oshawa, Weather by CustomWeather, © 2015

Note: Actual official high and low records may vary slightly from our data, if they occured in-between our weather recording intervals... More about our weather records


Oshawa weather history for previous 24 hours

Time TempWeatherWind HumidityBarometerVisibility
2:00 PM
Thu, Nov 26
55 °FScattered showers. Broken clouds.12 mph55%30.39 "Hg15 mi
1:00 PM54 °FSprinkles. Mostly cloudy.13 mph54%30.42 "Hg14 mi
12:00 PM52 °FMostly cloudy.9 mph58%30.45 "Hg15 mi
11:00 AM52 °FCloudy.10 mph58%30.47 "Hg15 mi
10:00 AM50 °FSprinkles. Cloudy.12 mph58%30.49 "Hg14 mi
9:00 AM48 °FSprinkles. Cloudy.9 mph62%30.48 "Hg14 mi
8:00 AM48 °FScattered showers. Mostly cloudy.10 mph62%30.47 "Hg15 mi
7:00 AM46 °FOvercast.8 mph66%30.47 "Hg12 mi
6:00 AM46 °FOvercast.7 mph62%30.46 "Hg10 mi
5:00 AM45 °FOvercast.8 mph66%30.45 "Hg10 mi
4:00 AM43 °FOvercast.6 mph71%30.46 "Hg10 mi
3:00 AM41 °FHigh level clouds.8 mph76%30.46 "Hg10 mi
2:00 AM41 °FPassing clouds.6 mph76%30.47 "Hg12 mi
1:00 AM43 °FOvercast.9 mph66%30.46 "Hg15 mi
12:00 AM41 °FPassing clouds.8 mph70%30.47 "Hg15 mi
11:00 PM
Wed, Nov 25
41 °FPassing clouds.6 mph76%30.47 "Hg12 mi
10:00 PM34 °FPassing clouds.5 mph93%30.47 "Hg12 mi
9:00 PM36 °FPassing clouds.2 mph93%30.48 "Hg12 mi
8:00 PM37 °FPassing clouds.2 mph87%30.49 "Hg15 mi
7:00 PM39 °FPassing clouds.2 mph81%30.51 "Hg15 mi
6:00 PM41 °FPassing clouds.8 mph76%30.50 "Hg15 mi
5:00 PM41 °FPassing clouds.7 mph76%30.51 "Hg15 mi
4:00 PM43 °FScattered clouds.12 mph71%30.50 "Hg15 mi
3:00 PM43 °FPassing clouds.14 mph76%30.52 "Hg15 mi
Weather by CustomWeather, © 2015

See weather overviewHow to use our weather pages